Back to catalog

STARLINK-35650

AliveCommunicationsVLEO
NORAD 66573·PAYLOAD·🇺🇸 United States

Launched Nov 21, 2025 from Cape Canaveral Space Force Station

Loading…

Next Passes (next 24 hours)

TLE

FreshSource: CelesTrak SupGP

Epoch: Sep 15, 2026, 03:37 UTC

1 66573C 25268S   26258.15118056  .00049044  00000+0  17760-2 0  2581
2 66573  43.0011 357.3398 0001721 266.0552  51.8324 15.27560544    16

Track STARLINK-35650 in real time with AllMySat

Download on the App Store